Wind_Speed
23 24 19 22 21 27 28 25 25 23 19 17 16 13 13 14 14 16 15 17 7 9 5 5 6 4 5 6 4 3 3 3 5
23 19 11 21 26 28 26 25 27 24 22 20 19 15 14 12 13 15 15 13 8 7 8 5 4 6 5 2 1 3 5 6 6
20 19 21 19 17 23 25 24 24 26 24 21 19 16 16 13 15 15 12 11 11 7 6 6 6 3 5 8 7 4 8 13 9
20 20 20 18 15 24 25 25 25 24 23 20 21 16 18 16 15 13 12 11 10 4 3 4 6 8 9 9 7 7 10 13 12
20 21 19 20 15 25 24 25 26 25 24 23 21 23 24 14 12 13 13 11 5 7 5 6 9 10 10 9 9 9 12 15 13
14 20 17 20 18 17 22 23 26 26 26 24 22 23 23 20 18 18 13 8 8 6 8 8 10 10 11 12 12 13 14 13 14
15 11 13 19 17 16 21 23 25 26 25 20 27 25 23 21 20 15 12 14 10 9 11 13 12 13 13 12 13 12 13 13 13
15 14 16 15 17 16 20 21 23 25 26 32 26 30 26 24 20 16 10 12 11 11 12 13 13 14 11 12 11 11 11 12 13
15 13 16 14 15 18 20 22 22 24 23 32 28 30 26 25 22 17 16 16 14 14 14 12 12 11 11 10 11 13 12 13 12
15 14 16 15 17 19 24 25 25 23 27 29 25 27 24 19 20 23 19 15 17 15 13 13 11 11 9 8 13 14 12 13 12
17 15 15 13 15 23 26 27 26 24 21 28 24 27 24 21 21 23 21 20 18 15 13 14 13 12 10 8 15 16 13 13 11
20 18 16 17 23 27 28 28 29 26 24 22 22 22 24 25 26 25 23 21 19 17 18 15 14 13 12 11 18 18 17 13 11
21 20 23 23 26 30 28 27 30 27 27 25 23 23 25 29 26 26 24 23 22 18 17 16 15 15 13 12 19 20 18 13 13
17 21 25 27 26 29 31 31 32 29 29 28 27 27 26 26 26 25 24 22 21 21 19 18 18 17 14 14 18 24 18 11 12
12 9 24 29 23 28 34 35 32 29 29 29 29 27 29 29 27 24 24 24 22 22 20 20 21 17 15 15 18 25 20 14 7
11 21 24 30 26 30 34 37 36 31 29 30 30 31 28 27 28 25 26 26 24 23 22 21 19 19 17 17 20 25 22 17 9
9 14 17 17 28 29 29 35 37 35 31 31 31 32 30 29 29 27 27 25 26 26 25 23 22 22 20 20 20 22 27 21 15
12 15 22 22 23 31 33 36 34 33 34 33 31 30 31 32 29 29 28 26 28 28 29 28 27 26 24 25 25 26 29 30 24
12 15 20 19 6 31 30 33 33 34 35 37 34 30 30 32 32 30 28 27 27 29 28 31 28 26 26 25 26 26 28 28 25
13 15 17 20 19 23 32 32 32 34 35 39 36 31 32 33 31 32 31 30 28 27 27 31 31 29 28 24 31 29 30 27 27
Wind_Direction
171 189 167 158 155 157 167 165 160 165 177 177 178 182 185 190 185 184 189 196 201 182 225 225 214 208 237 279 289 279 315 54 56
147 172 122 149 160 162 159 159 159 167 173 183 177 187 185 186 186 186 179 176 181 196 196 217 202 201 237 237 147 99 115 86 68
164 166 161 157 156 162 157 166 170 163 173 186 180 175 178 176 180 181 177 184 184 179 193 203 192 150 125 109 97 116 95 86 76
165 168 158 148 157 162 164 168 171 164 169 168 175 176 179 177 189 177 178 191 175 193 177 152 146 135 121 113 107 84 80 89 84
165 159 153 163 161 155 163 169 171 175 172 168 184 188 188 187 186 190 181 182 186 196 152 136 136 130 122 123 113 98 88 95 94
129 143 155 157 166 154 161 171 171 173 180 167 170 185 193 197 191 187 196 199 193 165 159 149 140 133 135 122 107 108 106 107 101
134 147 148 157 162 157 163 171 170 171 175 174 166 173 181 188 191 211 218 179 179 165 163 144 141 140 125 119 119 119 117 113 106
143 168 166 165 163 154 159 163 165 167 179 178 176 176 183 189 199 213 181 173 176 168 157 152 138 127 128 128 135 129 125 117 106
156 178 164 172 157 151 155 159 165 167 171 173 179 186 189 198 200 185 170 178 174 170 160 140 138 134 138 158 133 138 136 127 115
166 177 164 170 157 158 159 164 168 169 169 177 182 183 178 175 182 181 185 176 167 165 154 148 152 145 152 141 144 151 133 130 133
162 170 164 171 159 161 161 166 172 174 176 178 171 179 186 184 166 163 167 168 168 163 162 169 163 153 159 152 151 152 138 125 128
161 163 164 167 164 163 161 170 171 172 170 165 170 173 172 170 171 169 173 172 174 173 167 168 158 155 151 160 157 156 143 134 132
162 163 168 172 178 162 167 169 167 168 167 174 177 181 176 170 172 174 175 178 176 174 167 163 163 157 162 180 167 165 162 150 144
169 165 167 174 177 163 170 170 171 175 171 178 181 180 172 169 174 176 175 177 172 170 169 168 165 158 171 178 177 171 182 179 170
10 355 168 170 175 161 165 169 173 179 184 180 175 173 169 172 178 174 180 174 172 171 171 162 155 162 174 183 186 184 191 197 200
53 305 192 172 171 156 165 170 173 182 185 178 173 167 168 171 178 178 178 173 171 171 172 162 167 175 185 184 198 194 199 206 199
1 349 341 185 163 156 165 173 175 181 180 179 175 166 166 169 173 178 177 177 176 177 177 179 185 189 194 184 190 199 202 202 200
353 343 345 338 166 160 169 174 177 178 176 179 175 173 167 169 178 178 178 185 186 189 190 190 191 196 197 185 188 198 200 201 202
357 339 336 339 341 161 168 172 174 177 178 179 176 174 173 175 177 180 183 188 192 201 198 199 203 205 203 203 199 198 205 204 203
334 342 342 344 335 178 165 175 180 182 182 180 182 179 178 180 183 182 186 194 191 196 202 201 210 211 210 212 202 203 206 203 201
Height
714 726 727 737 751 761 772 778 785 793 800 805 809 812 815 818 820 823 825 827 830 831 833 835 836 837 839 839 839 839 839 839 839
714 720 729 737 748 758 767 774 782 790 798 802 805 809 813 816 819 821 823 827 829 830 832 834 834 836 838 838 837 838 839 839 839
709 715 725 733 742 752 763 772 780 787 794 798 803 807 811 815 818 822 823 826 828 830 831 833 834 835 836 837 838 839 839 839 841
703 711 722 732 740 749 760 769 777 784 791 797 802 807 810 814 816 820 824 826 828 829 828 831 833 834 835 837 839 840 840 840 842
696 705 717 730 736 746 756 766 774 781 789 793 798 804 809 813 816 819 823 826 829 830 830 831 833 834 836 839 840 841 841 842 844
698 706 716 727 735 744 753 762 770 777 784 791 798 802 807 812 816 819 823 825 827 830 830 831 834 836 838 838 840 842 843 845 845
702 708 714 722 730 740 750 759 766 774 781 789 793 800 806 810 814 817 821 822 828 829 831 832 835 837 838 839 841 844 845 846 847
704 712 716 720 728 738 748 756 764 771 778 785 791 797 802 808 812 817 819 823 826 828 830 833 834 836 839 840 843 845 846 848 849
705 711 715 719 726 735 745 754 762 770 775 782 788 793 799 804 809 813 817 821 825 828 831 832 834 836 838 842 843 845 848 849 851
702 708 711 717 724 733 741 751 760 767 773 780 786 790 796 802 807 810 813 819 823 826 829 832 835 837 840 842 844 847 848 849 852
693 700 708 714 721 731 740 749 758 766 773 778 783 788 795 800 805 809 813 817 821 825 828 832 835 838 840 843 845 847 849 851 854
682 690 700 709 717 728 736 745 754 762 769 776 781 787 793 798 802 806 811 815 820 825 828 832 835 838 841 843 845 847 850 853 855
675 684 695 704 713 723 734 743 751 759 765 772 778 784 790 795 800 804 809 814 819 823 827 831 835 838 841 842 844 847 850 852 856
669 678 689 699 708 717 729 739 747 755 761 767 773 782 787 792 797 801 808 814 818 822 826 830 834 836 839 842 844 847 849 851 853
680 689 679 691 702 712 723 733 744 752 757 763 771 778 783 789 794 800 807 812 817 821 825 829 832 835 838 841 842 845 847 849 850
692 707 677 683 694 707 718 727 736 746 754 761 767 773 780 786 793 799 804 808 813 819 823 826 830 833 835 837 840 843 845 847 849
691 691 689 680 688 703 714 722 729 738 750 758 764 768 776 784 790 797 801 806 810 814 817 821 825 827 830 833 837 839 841 844 847
695 694 692 690 684 697 707 716 726 735 743 753 760 767 771 777 787 792 797 802 805 807 810 812 816 819 823 826 829 832 836 838 841
705 702 698 695 693 693 704 714 722 731 738 746 754 762 767 773 779 787 792 797 801 804 805 808 812 816 819 821 823 827 830 834 838
709 707 704 701 697 699 701 711 719 726 733 739 747 753 761 768 774 778 784 789 792 797 800 803 807 811 814 816 817 820 824 829 834